Year,Month,Day,Hour,Minute,Value (Times are PST for temperature in C)
2017,10,13,00,00,3.90
2017,10,13,00,01,3.90
2017,10,13,00,02,3.90
2017,10,13,00,03,3.90
2017,10,13,00,04,3.90
2017,10,13,00,05,3.90
2017,10,13,00,06,3.90
2017,10,13,00,07,3.90
2017,10,13,00,08,3.90
2017,10,13,00,09,3.90
2017,10,13,00,10,3.90
2017,10,13,00,11,3.90
2017,10,13,00,12,3.90
2017,10,13,00,13,3.90
2017,10,13,00,14,3.90
2017,10,13,00,15,3.90
2017,10,13,00,16,3.90
2017,10,13,00,17,3.80
2017,10,13,00,18,3.80
2017,10,13,00,19,3.80
2017,10,13,00,20,3.80
2017,10,13,00,21,3.70
2017,10,13,00,22,3.70
2017,10,13,00,23,3.70
2017,10,13,00,24,3.70
2017,10,13,00,25,3.70
2017,10,13,00,26,3.60
2017,10,13,00,27,3.70
2017,10,13,00,28,3.60
2017,10,13,00,29,3.60
2017,10,13,00,30,3.60
2017,10,13,00,31,3.60
2017,10,13,00,32,3.60
2017,10,13,00,33,3.60
2017,10,13,00,34,3.60
2017,10,13,00,35,3.60
2017,10,13,00,36,3.60
2017,10,13,00,37,3.60
2017,10,13,00,38,3.60
2017,10,13,00,39,3.70
2017,10,13,00,40,3.60
2017,10,13,00,41,3.60
2017,10,13,00,42,3.60
2017,10,13,00,43,3.60
2017,10,13,00,44,3.60
2017,10,13,00,45,3.60
2017,10,13,00,46,3.60
2017,10,13,00,47,3.60
2017,10,13,00,48,3.60
2017,10,13,00,49,3.60
2017,10,13,00,50,3.60
2017,10,13,00,51,3.60
2017,10,13,00,52,3.70
2017,10,13,00,53,3.70
2017,10,13,00,54,3.70
2017,10,13,00,55,3.70
2017,10,13,00,56,3.70
2017,10,13,00,57,3.70
2017,10,13,00,58,3.70
2017,10,13,00,59,3.70
2017,10,13,01,00,3.70
2017,10,13,01,01,3.70
2017,10,13,01,02,3.70
2017,10,13,01,03,3.80
2017,10,13,01,04,3.80
2017,10,13,01,05,3.80
2017,10,13,01,06,3.80
2017,10,13,01,07,3.80
2017,10,13,01,08,3.80
2017,10,13,01,09,3.80
2017,10,13,01,10,3.80
2017,10,13,01,11,3.80
2017,10,13,01,12,3.80
2017,10,13,01,13,3.80
2017,10,13,01,14,3.80
2017,10,13,01,15,3.80
2017,10,13,01,16,3.80
2017,10,13,01,17,3.90
2017,10,13,01,18,3.80
2017,10,13,01,19,3.80
2017,10,13,01,20,3.80
2017,10,13,01,21,3.80
2017,10,13,01,22,3.80
2017,10,13,01,23,3.80
2017,10,13,01,24,3.80
2017,10,13,01,25,3.80
2017,10,13,01,26,3.80
2017,10,13,01,27,3.80
2017,10,13,01,28,3.80
2017,10,13,01,29,3.80
2017,10,13,01,30,3.80
2017,10,13,01,31,3.80
2017,10,13,01,32,3.80
2017,10,13,01,33,3.80
2017,10,13,01,34,3.80
2017,10,13,01,35,3.80
2017,10,13,01,36,3.80
2017,10,13,01,37,3.80
2017,10,13,01,38,3.80
2017,10,13,01,39,3.70
2017,10,13,01,40,3.70
2017,10,13,01,41,3.70
2017,10,13,01,42,3.70
2017,10,13,01,43,3.70
2017,10,13,01,44,3.70
2017,10,13,01,45,3.70
2017,10,13,01,46,3.70
2017,10,13,01,47,3.70
2017,10,13,01,48,3.70
2017,10,13,01,49,3.70
2017,10,13,01,50,3.70
2017,10,13,01,51,3.70
2017,10,13,01,52,3.70
2017,10,13,01,53,3.70
2017,10,13,01,54,3.70
2017,10,13,01,55,3.70
2017,10,13,01,56,3.70
2017,10,13,01,57,3.70
2017,10,13,01,58,3.70
2017,10,13,01,59,3.60
2017,10,13,02,00,3.60
2017,10,13,02,01,3.60
2017,10,13,02,02,3.60
2017,10,13,02,03,3.60
2017,10,13,02,04,3.60
2017,10,13,02,05,3.60
2017,10,13,02,06,3.50
2017,10,13,02,07,3.50
2017,10,13,02,08,3.50
2017,10,13,02,09,3.50
2017,10,13,02,10,3.50
2017,10,13,02,11,3.50
2017,10,13,02,12,3.50
2017,10,13,02,13,3.50
2017,10,13,02,14,3.50
2017,10,13,02,15,3.50
2017,10,13,02,16,3.50
2017,10,13,02,17,3.50
2017,10,13,02,18,3.40
2017,10,13,02,19,3.40
2017,10,13,02,20,3.40
2017,10,13,02,21,3.40
2017,10,13,02,22,3.30
2017,10,13,02,23,3.30
2017,10,13,02,24,3.20
2017,10,13,02,25,3.20
2017,10,13,02,26,3.10
2017,10,13,02,27,3.10
2017,10,13,02,28,3.00
2017,10,13,02,29,3.00
2017,10,13,02,30,2.90
2017,10,13,02,31,2.90
2017,10,13,02,32,2.90
2017,10,13,02,33,2.80
2017,10,13,02,34,2.80
2017,10,13,02,35,2.80
2017,10,13,02,36,2.80
2017,10,13,02,37,2.80
2017,10,13,02,38,2.80
2017,10,13,02,39,2.80
2017,10,13,02,40,2.80
2017,10,13,02,41,2.80
2017,10,13,02,42,2.80
2017,10,13,02,43,2.80
2017,10,13,02,44,2.70
2017,10,13,02,45,2.70
2017,10,13,02,46,2.70
2017,10,13,02,47,2.70
2017,10,13,02,48,2.70
2017,10,13,02,49,2.70
2017,10,13,02,50,2.60
2017,10,13,02,51,2.60
2017,10,13,02,52,2.60
2017,10,13,02,53,2.60
2017,10,13,02,54,2.60
2017,10,13,02,55,2.60
2017,10,13,02,56,2.60
2017,10,13,02,57,2.60
2017,10,13,02,58,2.60
2017,10,13,02,59,2.60
2017,10,13,03,00,2.50
2017,10,13,03,01,2.50
2017,10,13,03,02,2.50
2017,10,13,03,03,2.50
2017,10,13,03,04,2.50
2017,10,13,03,05,2.50
2017,10,13,03,06,2.50
2017,10,13,03,07,2.50
2017,10,13,03,08,2.40
2017,10,13,03,09,2.40
2017,10,13,03,10,2.40
2017,10,13,03,11,2.30
2017,10,13,03,12,2.30
2017,10,13,03,13,2.30
2017,10,13,03,14,2.20
2017,10,13,03,15,2.20
2017,10,13,03,16,2.10
2017,10,13,03,17,2.10
2017,10,13,03,18,2.00
2017,10,13,03,19,2.00
2017,10,13,03,20,1.90
2017,10,13,03,21,1.90
2017,10,13,03,22,1.90
2017,10,13,03,23,2.00
2017,10,13,03,24,2.00
2017,10,13,03,25,2.00
2017,10,13,03,26,2.00
2017,10,13,03,27,2.00
2017,10,13,03,28,2.00
2017,10,13,03,29,2.00
2017,10,13,03,30,2.10
2017,10,13,03,31,2.10
2017,10,13,03,32,2.10
2017,10,13,03,33,2.10
2017,10,13,03,34,2.10
2017,10,13,03,35,2.10
2017,10,13,03,36,2.10
2017,10,13,03,37,2.10
2017,10,13,03,38,2.10
2017,10,13,03,39,2.10
2017,10,13,03,40,2.10
2017,10,13,03,41,2.10
2017,10,13,03,42,2.10
2017,10,13,03,43,2.10
2017,10,13,03,44,2.10
2017,10,13,03,45,2.10
2017,10,13,03,46,2.10
2017,10,13,03,47,2.10
2017,10,13,03,48,2.10
2017,10,13,03,49,2.10
2017,10,13,03,50,2.10
2017,10,13,03,51,2.10
2017,10,13,03,52,2.10
2017,10,13,03,53,2.10
2017,10,13,03,54,2.10
2017,10,13,03,55,2.10
2017,10,13,03,56,2.10
2017,10,13,03,57,2.10
2017,10,13,03,58,2.10
2017,10,13,03,59,2.00
2017,10,13,04,00,2.00
2017,10,13,04,01,2.00
2017,10,13,04,02,1.90
2017,10,13,04,03,1.90
2017,10,13,04,04,1.90
2017,10,13,04,05,1.90
2017,10,13,04,06,1.90
2017,10,13,04,07,1.90
2017,10,13,04,08,1.90
2017,10,13,04,09,1.90
2017,10,13,04,10,1.90
2017,10,13,04,11,1.80
2017,10,13,04,12,1.80
2017,10,13,04,13,1.80
2017,10,13,04,14,1.80
2017,10,13,04,15,1.80
2017,10,13,04,16,1.80
2017,10,13,04,17,1.80
2017,10,13,04,18,1.80
2017,10,13,04,19,1.80
2017,10,13,04,20,1.80
2017,10,13,04,21,1.70
2017,10,13,04,22,1.70
2017,10,13,04,23,1.70
2017,10,13,04,24,1.70
2017,10,13,04,25,1.70
2017,10,13,04,26,1.60
2017,10,13,04,27,1.60
2017,10,13,04,28,1.60
2017,10,13,04,29,1.60
2017,10,13,04,30,1.60
2017,10,13,04,31,1.60
2017,10,13,04,32,1.50
2017,10,13,04,33,1.60
2017,10,13,04,34,1.60
2017,10,13,04,35,1.50
2017,10,13,04,36,1.50
2017,10,13,04,37,1.50
2017,10,13,04,38,1.50
2017,10,13,04,39,1.50
2017,10,13,04,40,1.40
2017,10,13,04,41,1.40
2017,10,13,04,42,1.40
2017,10,13,04,43,1.40
2017,10,13,04,44,1.40
2017,10,13,04,45,1.30
2017,10,13,04,46,1.30
2017,10,13,04,47,1.30
2017,10,13,04,48,1.30
2017,10,13,04,49,1.30
2017,10,13,04,50,1.30
2017,10,13,04,51,1.30
2017,10,13,04,52,1.30
2017,10,13,04,53,1.30
2017,10,13,04,54,1.30
2017,10,13,04,55,1.30
2017,10,13,04,56,1.30
2017,10,13,04,57,1.30
2017,10,13,04,58,1.30
2017,10,13,04,59,1.30
2017,10,13,05,00,1.20
2017,10,13,05,01,1.20
2017,10,13,05,02,1.10
2017,10,13,05,03,1.10
2017,10,13,05,04,1.00
2017,10,13,05,05,1.00
2017,10,13,05,06,0.90
2017,10,13,05,07,0.90
2017,10,13,05,08,0.80
2017,10,13,05,09,0.80
2017,10,13,05,10,0.70
2017,10,13,05,11,0.70
2017,10,13,05,12,0.70
2017,10,13,05,13,0.70
2017,10,13,05,14,0.70
2017,10,13,05,15,0.60
2017,10,13,05,16,0.60
2017,10,13,05,17,0.60
2017,10,13,05,18,0.60
2017,10,13,05,19,0.60
2017,10,13,05,20,0.60
2017,10,13,05,21,0.60
2017,10,13,05,22,0.60
2017,10,13,05,23,0.60
2017,10,13,05,24,0.60
2017,10,13,05,25,0.60
2017,10,13,05,26,0.60
2017,10,13,05,27,0.60
2017,10,13,05,28,0.60
2017,10,13,05,29,0.60
2017,10,13,05,30,0.50
2017,10,13,05,31,0.50
2017,10,13,05,32,0.40
2017,10,13,05,33,0.40
2017,10,13,05,34,0.40
2017,10,13,05,35,0.40
2017,10,13,05,36,0.40
2017,10,13,05,37,0.40
2017,10,13,05,38,0.40
2017,10,13,05,39,0.40
2017,10,13,05,40,0.40
2017,10,13,05,41,0.40
2017,10,13,05,42,0.40
2017,10,13,05,43,0.40
2017,10,13,05,44,0.40
2017,10,13,05,45,0.40
2017,10,13,05,46,0.40
2017,10,13,05,47,0.40
2017,10,13,05,48,0.40
2017,10,13,05,49,0.40
2017,10,13,05,50,0.40
2017,10,13,05,51,0.40
2017,10,13,05,52,0.40
2017,10,13,05,53,0.40
2017,10,13,05,54,0.40
2017,10,13,05,55,0.40
2017,10,13,05,56,0.40
2017,10,13,05,57,0.40
2017,10,13,05,58,0.40
2017,10,13,05,59,0.40
2017,10,13,06,00,0.30
2017,10,13,06,01,0.30
2017,10,13,06,02,0.30
2017,10,13,06,03,0.30
2017,10,13,06,04,0.30
2017,10,13,06,05,0.20
2017,10,13,06,06,0.20
2017,10,13,06,07,0.20
2017,10,13,06,08,0.20
2017,10,13,06,09,0.20
2017,10,13,06,10,0.20
2017,10,13,06,11,0.20
2017,10,13,06,12,0.20
2017,10,13,06,13,0.20
2017,10,13,06,14,0.20
2017,10,13,06,15,0.30
2017,10,13,06,16,0.30
2017,10,13,06,17,0.30
2017,10,13,06,18,0.30
2017,10,13,06,19,0.30
2017,10,13,06,20,0.40
2017,10,13,06,21,0.40
2017,10,13,06,22,0.40
2017,10,13,06,23,0.40
2017,10,13,06,24,0.40
2017,10,13,06,25,0.40
2017,10,13,06,26,0.40
2017,10,13,06,27,0.50
2017,10,13,06,28,0.50
2017,10,13,06,29,0.40
2017,10,13,06,30,0.40
2017,10,13,06,31,0.40
2017,10,13,06,32,0.30
2017,10,13,06,33,0.30
2017,10,13,06,34,0.20
2017,10,13,06,35,0.20
2017,10,13,06,36,0.10
2017,10,13,06,37,0.10
2017,10,13,06,38,0.10
2017,10,13,06,39,0.10
2017,10,13,06,40,0.00
2017,10,13,06,41,0.00
2017,10,13,06,42,0.10
2017,10,13,06,43,0.10
2017,10,13,06,44,0.10
2017,10,13,06,45,0.10
2017,10,13,06,46,0.10
2017,10,13,06,47,0.10
2017,10,13,06,48,0.20
2017,10,13,06,49,0.20
2017,10,13,06,50,0.20
2017,10,13,06,51,0.20
2017,10,13,06,52,0.20
2017,10,13,06,53,0.20
2017,10,13,06,54,0.20
2017,10,13,06,55,0.20
2017,10,13,06,56,0.20
2017,10,13,06,57,0.20
2017,10,13,06,58,0.30
2017,10,13,06,59,0.30
2017,10,13,07,00,0.30
2017,10,13,07,01,0.40
2017,10,13,07,02,0.40
2017,10,13,07,03,0.40
2017,10,13,07,04,0.40
2017,10,13,07,05,0.40
2017,10,13,07,06,0.40
2017,10,13,07,07,0.40
2017,10,13,07,08,0.40
2017,10,13,07,09,0.40
2017,10,13,07,10,0.40
2017,10,13,07,11,0.40
2017,10,13,07,12,0.40
2017,10,13,07,13,0.40
2017,10,13,07,14,0.40
2017,10,13,07,15,0.40
2017,10,13,07,16,0.40
2017,10,13,07,17,0.40
2017,10,13,07,18,0.40
2017,10,13,07,19,0.40
2017,10,13,07,20,0.40
2017,10,13,07,21,0.40
2017,10,13,07,22,0.40
2017,10,13,07,23,0.40
2017,10,13,07,24,0.40
2017,10,13,07,25,0.40
2017,10,13,07,26,0.40
2017,10,13,07,27,0.40
2017,10,13,07,28,0.40
2017,10,13,07,29,0.40
2017,10,13,07,30,0.40
2017,10,13,07,31,0.50
2017,10,13,07,32,0.50
2017,10,13,07,33,0.50
2017,10,13,07,34,0.60
2017,10,13,07,35,0.60
2017,10,13,07,36,0.60
2017,10,13,07,37,0.60
2017,10,13,07,38,0.60
2017,10,13,07,39,0.60
2017,10,13,07,40,0.60
2017,10,13,07,41,0.60
2017,10,13,07,42,0.60
2017,10,13,07,43,0.50
2017,10,13,07,44,0.50
2017,10,13,07,45,0.50
2017,10,13,07,46,0.50
2017,10,13,07,47,0.40
2017,10,13,07,48,0.40
2017,10,13,07,49,0.40
2017,10,13,07,50,0.30
2017,10,13,07,51,0.30
2017,10,13,07,52,0.30
2017,10,13,07,53,0.40
2017,10,13,07,54,0.40
2017,10,13,07,55,0.40
2017,10,13,07,56,0.40
2017,10,13,07,57,0.40
2017,10,13,07,58,0.50
2017,10,13,07,59,0.60
2017,10,13,08,00,0.60
2017,10,13,08,01,0.70
2017,10,13,08,02,0.80
2017,10,13,08,03,0.90
2017,10,13,08,04,1.00
2017,10,13,08,05,1.10
2017,10,13,08,06,1.10
2017,10,13,08,07,1.10
2017,10,13,08,08,1.10
2017,10,13,08,09,1.10
2017,10,13,08,10,1.10
2017,10,13,08,11,1.10
2017,10,13,08,12,1.20
2017,10,13,08,13,1.30
2017,10,13,08,14,1.40
2017,10,13,08,15,1.40
2017,10,13,08,16,1.50
2017,10,13,08,17,1.50
2017,10,13,08,18,1.70
2017,10,13,08,19,1.90
2017,10,13,08,20,2.10
2017,10,13,08,21,2.30
2017,10,13,08,22,2.50
2017,10,13,08,23,2.70
2017,10,13,08,24,2.90
2017,10,13,08,25,3.00
2017,10,13,08,26,3.20
2017,10,13,08,27,3.30
2017,10,13,08,28,3.50
2017,10,13,08,29,3.60
2017,10,13,08,30,3.70
2017,10,13,08,31,3.80
2017,10,13,08,32,3.80
2017,10,13,08,33,3.90
2017,10,13,08,34,4.00
2017,10,13,08,35,4.10
2017,10,13,08,36,4.10
2017,10,13,08,37,4.20
2017,10,13,08,38,4.20
2017,10,13,08,39,4.30
2017,10,13,08,40,4.40
2017,10,13,08,41,4.40
2017,10,13,08,42,4.50
2017,10,13,08,43,4.60
2017,10,13,08,44,4.60
2017,10,13,08,45,4.70
2017,10,13,08,46,4.80
2017,10,13,08,47,4.80
2017,10,13,08,48,4.90
2017,10,13,08,49,5.00
2017,10,13,08,50,5.00
2017,10,13,08,51,5.10
2017,10,13,08,52,5.10
2017,10,13,08,53,5.20
2017,10,13,08,54,5.20
2017,10,13,08,55,5.30
2017,10,13,08,56,5.30
2017,10,13,08,57,5.30
2017,10,13,08,58,5.40
2017,10,13,08,59,5.40
2017,10,13,09,00,5.50
2017,10,13,09,01,5.50
2017,10,13,09,02,5.60
2017,10,13,09,03,5.60
2017,10,13,09,04,5.70
2017,10,13,09,05,5.70
2017,10,13,09,06,5.70
2017,10,13,09,07,5.80
2017,10,13,09,08,5.80
2017,10,13,09,09,5.90
2017,10,13,09,10,6.00
2017,10,13,09,11,6.00
2017,10,13,09,12,6.10
2017,10,13,09,13,6.10
2017,10,13,09,14,6.20
2017,10,13,09,15,6.30
2017,10,13,09,16,6.30
2017,10,13,09,17,6.40
2017,10,13,09,18,6.40
2017,10,13,09,19,6.50
2017,10,13,09,20,6.50
2017,10,13,09,21,6.60
2017,10,13,09,22,6.60
2017,10,13,09,23,6.70
2017,10,13,09,24,6.70
2017,10,13,09,25,6.70
2017,10,13,09,26,6.80
2017,10,13,09,27,6.90
2017,10,13,09,28,6.90
2017,10,13,09,29,6.90
2017,10,13,09,30,7.00
2017,10,13,09,31,7.00
2017,10,13,09,32,7.10
2017,10,13,09,33,7.10
2017,10,13,09,34,7.20
2017,10,13,09,35,7.20
2017,10,13,09,36,7.30
2017,10,13,09,37,7.30
2017,10,13,09,38,7.40
2017,10,13,09,39,7.40
2017,10,13,09,40,7.40
2017,10,13,09,41,7.50
2017,10,13,09,42,7.50
2017,10,13,09,43,7.60
2017,10,13,09,44,7.70
2017,10,13,09,45,7.70
2017,10,13,09,46,7.70
2017,10,13,09,47,7.80
2017,10,13,09,48,7.80
2017,10,13,09,49,7.80
2017,10,13,09,50,7.90
2017,10,13,09,51,7.90
2017,10,13,09,52,7.90
2017,10,13,09,53,8.00
2017,10,13,09,54,8.00
2017,10,13,09,55,8.00
2017,10,13,09,56,8.10
2017,10,13,09,57,8.20
2017,10,13,09,58,8.20
2017,10,13,09,59,8.20
2017,10,13,10,00,8.30
2017,10,13,10,01,8.30
2017,10,13,10,02,8.30
2017,10,13,10,03,8.40
2017,10,13,10,04,8.40
2017,10,13,10,05,8.40
2017,10,13,10,06,8.50
2017,10,13,10,07,8.50
2017,10,13,10,08,8.60
2017,10,13,10,09,8.60
2017,10,13,10,10,8.60
2017,10,13,10,11,8.60
2017,10,13,10,12,8.60
2017,10,13,10,13,8.60
2017,10,13,10,14,8.70
2017,10,13,10,15,8.70
2017,10,13,10,16,8.70
2017,10,13,10,17,8.70
2017,10,13,10,18,8.80
2017,10,13,10,19,8.80
2017,10,13,10,20,8.80
2017,10,13,10,21,8.80
2017,10,13,10,22,8.80
2017,10,13,10,23,8.90
2017,10,13,10,24,8.90
2017,10,13,10,25,8.90
2017,10,13,10,26,8.90
2017,10,13,10,27,8.90
2017,10,13,10,28,9.00
2017,10,13,10,29,9.00
2017,10,13,10,30,9.00
2017,10,13,10,31,9.10
2017,10,13,10,32,9.10
2017,10,13,10,33,9.10
2017,10,13,10,34,9.10
2017,10,13,10,35,9.20
2017,10,13,10,36,9.20
2017,10,13,10,37,9.20
2017,10,13,10,38,9.20
2017,10,13,10,39,9.20
2017,10,13,10,40,9.20
2017,10,13,10,41,9.20
2017,10,13,10,42,9.30
2017,10,13,10,43,9.30
2017,10,13,10,44,9.30
2017,10,13,10,45,9.30
2017,10,13,10,46,9.30
2017,10,13,10,47,9.40
2017,10,13,10,48,9.40
2017,10,13,10,49,9.40
2017,10,13,10,50,9.40
2017,10,13,10,51,9.40
2017,10,13,10,52,9.40
2017,10,13,10,53,9.40
2017,10,13,10,54,9.40
2017,10,13,10,55,9.40
2017,10,13,10,56,9.40
2017,10,13,10,57,9.50
2017,10,13,10,58,9.50
2017,10,13,10,59,9.50
2017,10,13,11,00,9.60
2017,10,13,11,01,9.60
2017,10,13,11,02,9.60
2017,10,13,11,03,9.70
2017,10,13,11,04,9.70
2017,10,13,11,05,9.70
2017,10,13,11,06,9.70
2017,10,13,11,07,9.70
2017,10,13,11,08,9.70
2017,10,13,11,09,9.80
2017,10,13,11,10,9.80
2017,10,13,11,11,9.80
2017,10,13,11,12,9.80
2017,10,13,11,13,9.90
2017,10,13,11,14,9.90
2017,10,13,11,15,9.90
2017,10,13,11,16,10.00
2017,10,13,11,17,10.00
2017,10,13,11,18,10.00
2017,10,13,11,19,10.00
2017,10,13,11,20,10.10
2017,10,13,11,21,10.10
2017,10,13,11,22,10.10
2017,10,13,11,23,10.10
2017,10,13,11,24,10.10
2017,10,13,11,25,10.10
2017,10,13,11,26,10.10
2017,10,13,11,27,10.20
2017,10,13,11,28,10.20
2017,10,13,11,29,10.20
2017,10,13,11,30,10.20
2017,10,13,11,31,10.30
2017,10,13,11,32,10.30
2017,10,13,11,33,10.30
2017,10,13,11,34,10.30
2017,10,13,11,35,10.30
2017,10,13,11,36,10.30
2017,10,13,11,37,10.30
2017,10,13,11,38,10.30
2017,10,13,11,39,10.30
2017,10,13,11,40,10.30
2017,10,13,11,41,10.30
2017,10,13,11,42,10.30
2017,10,13,11,43,10.30
2017,10,13,11,44,10.30
2017,10,13,11,45,10.30
2017,10,13,11,46,10.30
2017,10,13,11,47,10.30
2017,10,13,11,48,10.30
2017,10,13,11,49,10.30
2017,10,13,11,50,10.40
2017,10,13,11,51,10.40
2017,10,13,11,52,10.40
2017,10,13,11,53,10.50
2017,10,13,11,54,10.50
2017,10,13,11,55,10.50
2017,10,13,11,56,10.60
2017,10,13,11,57,10.60
2017,10,13,11,58,10.60
2017,10,13,11,59,10.60
2017,10,13,12,00,10.60
2017,10,13,12,01,10.70
2017,10,13,12,02,10.70
2017,10,13,12,03,10.70
2017,10,13,12,04,10.70
2017,10,13,12,05,10.70
2017,10,13,12,06,10.70
2017,10,13,12,07,10.80
2017,10,13,12,08,10.80
2017,10,13,12,09,10.80
2017,10,13,12,10,10.80
2017,10,13,12,11,10.80
2017,10,13,12,12,10.90
2017,10,13,12,13,10.90
2017,10,13,12,14,10.90
2017,10,13,12,15,10.90
2017,10,13,12,16,10.90
2017,10,13,12,17,10.90
2017,10,13,12,18,11.00
2017,10,13,12,19,11.00
2017,10,13,12,20,11.00
2017,10,13,12,21,11.00
2017,10,13,12,22,11.00
2017,10,13,12,23,11.00
2017,10,13,12,24,11.00
2017,10,13,12,25,11.10
2017,10,13,12,26,11.10
2017,10,13,12,27,11.10
2017,10,13,12,28,11.10
2017,10,13,12,29,11.20
2017,10,13,12,30,11.20
2017,10,13,12,31,11.20
2017,10,13,12,32,11.20
2017,10,13,12,33,11.20
2017,10,13,12,34,11.20
2017,10,13,12,35,11.20
2017,10,13,12,36,11.30
2017,10,13,12,37,11.30
2017,10,13,12,38,11.20
2017,10,13,12,39,11.20
2017,10,13,12,40,11.20
2017,10,13,12,41,11.30
2017,10,13,12,42,11.30
2017,10,13,12,43,11.30
2017,10,13,12,44,11.30
2017,10,13,12,45,11.30
2017,10,13,12,46,11.40
2017,10,13,12,47,11.40
2017,10,13,12,48,11.40
2017,10,13,12,49,11.40
2017,10,13,12,50,11.40
2017,10,13,12,51,11.40
2017,10,13,12,52,11.50
2017,10,13,12,53,11.50
2017,10,13,12,54,11.50
2017,10,13,12,55,11.60
2017,10,13,12,56,11.60
2017,10,13,12,57,11.60
2017,10,13,12,58,11.60
2017,10,13,12,59,11.60
2017,10,13,13,00,11.60
2017,10,13,13,01,11.70
2017,10,13,13,02,11.70
2017,10,13,13,03,11.70
2017,10,13,13,04,11.80
2017,10,13,13,05,11.80
2017,10,13,13,06,11.80
2017,10,13,13,07,11.80
2017,10,13,13,08,11.80
2017,10,13,13,09,11.80
2017,10,13,13,10,11.80
2017,10,13,13,11,11.80
2017,10,13,13,12,11.90
2017,10,13,13,13,11.90
2017,10,13,13,14,11.90
2017,10,13,13,15,11.90
2017,10,13,13,16,11.90
2017,10,13,13,17,11.90
2017,10,13,13,18,11.90
2017,10,13,13,19,11.90
2017,10,13,13,20,11.90
2017,10,13,13,21,11.90
2017,10,13,13,22,11.90
2017,10,13,13,23,11.90
2017,10,13,13,24,11.90
2017,10,13,13,25,11.90
2017,10,13,13,26,11.90
2017,10,13,13,27,11.90
2017,10,13,13,28,11.90
2017,10,13,13,29,11.90
2017,10,13,13,30,11.90
2017,10,13,13,31,11.90
2017,10,13,13,32,11.90
2017,10,13,13,33,11.90
2017,10,13,13,34,12.00
2017,10,13,13,35,12.00
2017,10,13,13,36,12.00
2017,10,13,13,37,12.10
2017,10,13,13,38,12.10
2017,10,13,13,39,12.10
2017,10,13,13,40,12.10
2017,10,13,13,41,12.10
2017,10,13,13,42,12.10
2017,10,13,13,43,12.10
2017,10,13,13,44,12.10
2017,10,13,13,45,12.00
2017,10,13,13,46,12.00
2017,10,13,13,47,12.00
2017,10,13,13,48,12.10
2017,10,13,13,49,12.10
2017,10,13,13,50,12.10
2017,10,13,13,51,12.10
2017,10,13,13,52,12.10
2017,10,13,13,53,12.10
2017,10,13,13,54,12.10
2017,10,13,13,55,12.20
2017,10,13,13,56,12.20
2017,10,13,13,57,12.20
2017,10,13,13,58,12.20
2017,10,13,13,59,12.20
2017,10,13,14,00,12.20
2017,10,13,14,01,12.20
2017,10,13,14,02,12.20
2017,10,13,14,03,12.20
2017,10,13,14,04,12.30
2017,10,13,14,05,12.30
2017,10,13,14,06,12.30
2017,10,13,14,07,12.40
2017,10,13,14,08,12.40
2017,10,13,14,09,12.40
2017,10,13,14,10,12.40
2017,10,13,14,11,12.40
2017,10,13,14,12,12.40
2017,10,13,14,13,12.40
2017,10,13,14,14,12.50
2017,10,13,14,15,12.50
2017,10,13,14,16,12.50
2017,10,13,14,17,12.50
2017,10,13,14,18,12.40
2017,10,13,14,19,12.40
2017,10,13,14,20,12.40
2017,10,13,14,21,12.40
2017,10,13,14,22,12.40
2017,10,13,14,23,12.40
2017,10,13,14,24,12.40
2017,10,13,14,25,12.40
2017,10,13,14,26,12.40
2017,10,13,14,27,12.40
2017,10,13,14,28,12.50
2017,10,13,14,29,12.50
2017,10,13,14,30,12.40
2017,10,13,14,31,12.40
2017,10,13,14,32,12.40
2017,10,13,14,33,12.30
2017,10,13,14,34,12.30
2017,10,13,14,35,12.40
2017,10,13,14,36,12.40
2017,10,13,14,37,12.40
2017,10,13,14,38,12.40
2017,10,13,14,39,12.50
2017,10,13,14,40,12.50
2017,10,13,14,41,12.50
2017,10,13,14,42,12.60
2017,10,13,14,43,12.60
2017,10,13,14,44,12.70
2017,10,13,14,45,12.70
2017,10,13,14,46,12.70
2017,10,13,14,47,12.70
2017,10,13,14,48,12.80
2017,10,13,14,49,12.80
2017,10,13,14,50,12.80
2017,10,13,14,51,12.80
2017,10,13,14,52,12.80
2017,10,13,14,53,12.80
2017,10,13,14,54,12.80
2017,10,13,14,55,12.70
2017,10,13,14,56,12.70
2017,10,13,14,57,12.60
2017,10,13,14,58,12.60
2017,10,13,14,59,12.60
2017,10,13,15,00,12.60
2017,10,13,15,01,12.60
2017,10,13,15,02,12.60
2017,10,13,15,03,12.60
2017,10,13,15,04,12.50
2017,10,13,15,05,12.50
2017,10,13,15,06,12.50
2017,10,13,15,07,12.40
2017,10,13,15,08,12.40
2017,10,13,15,09,12.40
2017,10,13,15,10,12.40
2017,10,13,15,11,12.40
2017,10,13,15,12,12.40
2017,10,13,15,13,12.40
2017,10,13,15,14,12.40
2017,10,13,15,15,12.40
2017,10,13,15,16,12.40
2017,10,13,15,17,12.40
2017,10,13,15,18,12.40
2017,10,13,15,19,12.40
2017,10,13,15,20,12.40
2017,10,13,15,21,12.30
2017,10,13,15,22,12.30
2017,10,13,15,23,12.30
2017,10,13,15,24,12.30
2017,10,13,15,25,12.30
2017,10,13,15,26,12.30
2017,10,13,15,27,12.30
2017,10,13,15,28,12.40
2017,10,13,15,29,12.40
2017,10,13,15,30,12.40
2017,10,13,15,31,12.40
2017,10,13,15,32,12.50
2017,10,13,15,33,12.50
2017,10,13,15,34,12.50
2017,10,13,15,35,12.60
2017,10,13,15,36,12.60
2017,10,13,15,37,12.60
2017,10,13,15,38,12.70
2017,10,13,15,39,12.70
2017,10,13,15,40,12.70
2017,10,13,15,41,12.70
2017,10,13,15,42,12.70
2017,10,13,15,43,12.70
2017,10,13,15,44,12.70
2017,10,13,15,45,12.70
2017,10,13,15,46,12.60
2017,10,13,15,47,12.60
2017,10,13,15,48,12.60
2017,10,13,15,49,12.60
2017,10,13,15,50,12.60
2017,10,13,15,51,12.60
2017,10,13,15,52,12.60
2017,10,13,15,53,12.70
2017,10,13,15,54,12.70
2017,10,13,15,55,12.70
2017,10,13,15,56,12.70
2017,10,13,15,57,12.70
2017,10,13,15,58,12.70
2017,10,13,15,59,12.70
2017,10,13,16,00,12.80
2017,10,13,16,01,12.80
2017,10,13,16,02,12.80
2017,10,13,16,03,12.80
2017,10,13,16,04,12.80
2017,10,13,16,05,12.80
2017,10,13,16,06,12.80
2017,10,13,16,07,12.80
2017,10,13,16,08,12.80
2017,10,13,16,09,12.80
2017,10,13,16,10,12.80
2017,10,13,16,11,12.80
2017,10,13,16,12,12.80
2017,10,13,16,13,12.80
2017,10,13,16,14,12.80
2017,10,13,16,15,12.80
2017,10,13,16,16,12.70
2017,10,13,16,17,12.70
2017,10,13,16,18,12.70
2017,10,13,16,19,12.70
2017,10,13,16,20,12.70
2017,10,13,16,21,12.60
2017,10,13,16,22,12.60
2017,10,13,16,23,12.70
2017,10,13,16,24,12.70
2017,10,13,16,25,12.70
2017,10,13,16,26,12.70
2017,10,13,16,27,12.70
2017,10,13,16,28,12.70
2017,10,13,16,29,12.70
2017,10,13,16,30,12.80
2017,10,13,16,31,12.80
2017,10,13,16,32,12.80
2017,10,13,16,33,12.80
2017,10,13,16,34,12.80
2017,10,13,16,35,12.90
2017,10,13,16,36,12.90
2017,10,13,16,37,13.00
2017,10,13,16,38,13.00
2017,10,13,16,39,13.00
2017,10,13,16,40,13.10
2017,10,13,16,41,13.10
2017,10,13,16,42,13.10
2017,10,13,16,43,13.10
2017,10,13,16,44,13.10
2017,10,13,16,45,13.10
2017,10,13,16,46,13.10
2017,10,13,16,47,13.10
2017,10,13,16,48,13.10
2017,10,13,16,49,13.20
2017,10,13,16,50,13.20
2017,10,13,16,51,13.10
2017,10,13,16,52,13.10
2017,10,13,16,53,13.00
2017,10,13,16,54,13.00
2017,10,13,16,55,12.90
2017,10,13,16,56,12.90
2017,10,13,16,57,12.90
2017,10,13,16,58,12.90
2017,10,13,16,59,13.00
2017,10,13,17,00,12.90
2017,10,13,17,01,12.90
2017,10,13,17,02,12.90
2017,10,13,17,03,12.90
2017,10,13,17,04,12.90
2017,10,13,17,05,12.80
2017,10,13,17,06,12.80
2017,10,13,17,07,12.80
2017,10,13,17,08,12.80
2017,10,13,17,09,12.80
2017,10,13,17,10,12.80
2017,10,13,17,11,12.70
2017,10,13,17,12,12.70
2017,10,13,17,13,12.70
2017,10,13,17,14,12.70
2017,10,13,17,15,12.70
2017,10,13,17,16,12.70
2017,10,13,17,17,12.60
2017,10,13,17,18,12.70
2017,10,13,17,19,12.70
2017,10,13,17,20,12.70
2017,10,13,17,21,12.60
2017,10,13,17,22,12.60
2017,10,13,17,23,12.60
2017,10,13,17,24,12.60
2017,10,13,17,25,12.60
2017,10,13,17,26,12.60
2017,10,13,17,27,12.60
2017,10,13,17,28,12.50
2017,10,13,17,29,12.50
2017,10,13,17,30,12.40
2017,10,13,17,31,12.40
2017,10,13,17,32,12.40
2017,10,13,17,33,12.40
2017,10,13,17,34,12.30
2017,10,13,17,35,12.30
2017,10,13,17,36,12.20
2017,10,13,17,37,12.20
2017,10,13,17,38,12.10
2017,10,13,17,39,12.00
2017,10,13,17,40,11.90
2017,10,13,17,41,11.80
2017,10,13,17,42,11.70
2017,10,13,17,43,11.70
2017,10,13,17,44,11.60
2017,10,13,17,45,11.50
2017,10,13,17,46,11.50
2017,10,13,17,47,11.40
2017,10,13,17,48,11.30